STARLINK-11520, 62834

Orbit data source: Space-Track

STARLINK-11520, 62834 is a payload satellite owned by SpaceX/Seattle (US) in LEO that was launched on Mon, 27 Jan 2025 UTC via an FALCON 9 launch vehicle from the Air Force Eastern Test Range (AFETR). Payload-class satellites include a variety of spacecraft equipped with specific instruments for various scientific and technological missions. These include communications satellites like Starlink; space stations such as the ISS; scientific satellites like the Hubble; Earth observation satellites from companies like Planet Labs, Umbra, and HawkEye 360; GPS; miniature CubeSats for education and research; and military/defense satellites.

Loading next visibility...
Identifier
62834, 2025-019F
Orbit
LEO
Country
Flag of USUS
Related business
Manufacturer
SpaceX/Seattle
Mission
Operational Commercial Communications
Bus & Motor
STARLINK V2MD, Unknown motor
Mass
960 kg wet, ~910 kg dry
Launch date (UTC)
2025-01-27 (8 months ago)
Launch vehicle
FALCON 9
Launch site
Air Force Eastern Test Range (AFETR)
Object type
Payload
Rocket body
Debris
Shape & HBR
Box + 2 Pan, 14.5 m
Radar Cross Section
36.964 m², Large (>1 m²)

Expand to show TLE details & history
Last TLE update: 21 hours ago

TLE from 21 hours ago
0 STARLINK-11520
1 62834U 25019F   25258.77544369  .00314064  00000-0  23408-2 0  9994
2 62834  42.9992 280.0963 0001377 311.2314  48.8435 15.71031871 36387
Epoch: 2025-09-15T18:36Z
TLE epoch observation values (Epoch: 2025-09-15T18:36:38.334Z)
Latitude
-0.00003°
Longitude
5.96129°
Altitude
355.108 km
Speed
7.698 km/s
True Right ascension
18h 40m 23s
True Declination
0° 00' 00"
Sunlit
Object was in daylight at epoch
Visualization orbit readout
Latitude
Unknown
Longitude
Unknown
Altitude
Unknown
Speed
Unknown
Apparent Right ascension
Unknown
Apparent Declination
Unknown
Sunlit
N/A
Visualization observer readout
Local Sidereal Time
08:12:42
Azimuth
Unknown
Elevation
Unknown
Doppler factor
Unknown
Orbital elements
Apogee altitude
358.856 km
Perigee altitude
357.001 km
Semi-major axis
6,736.066 km
Eccentricity
0.00014
Inclination
42.9992°
RAAN
280.0963°
Arg. of periapsis
311.2314°
True anomaly
48.85538°
Mean anomaly
48.8435°
Eccentric anomaly
48.84944°
Mean motion
3.92585 °/min
Orbital period
91.7 mins
BSTAR
0.0023408
Loading maneuver chart data...
Computing Atmospheric mass density...
Loading historical data...
Loading historical data...
Loading historical data...
Loading historical data...
Loading historical data...
Loading historical data...
Loading historical data...

Documentation

Showing up to 5 results
|